Long Beach, CA

10:54 AM PDT on April 19, 2018 (GMT -0700)
Long Beach

Weather History for KLGB - April, 2014

Change the Weather History Date:

Thursday, April 10, 2014

  Actual Average Record
Temperature  
Mean Temperature 64 °F 62 °F  
Max Temperature 77 °F 71 °F 95 °F (1968)
Min Temperature 51 °F 52 °F 41 °F (1999)
Degree Days  
Heating Degree Days 1 4  
Month to date heating degree days 33 44  
Since 1 July heating degree days 689 1114  
Cooling Degree Days 0 1  
Month to date cooling degree days 25 10  
Year to date cooling degree days 63 28  
Growing Degree Days 14 (Base 50)    
Moisture  
Dew Point 49 °F    
Average Humidity 61    
Maximum Humidity 96    
Minimum Humidity 25    
Precipitation  
Precipitation 0.00 in 0.02 in 0.13 in (2012)
Month to date precipitation 0.20 0.29  
Year to date precipitation 3.02 7.85  
Since 1 July precipitation 4.33  
Sea Level Pressure  
Sea Level Pressure 29.96 in    
Wind  
Wind Speed 4 mph (WNW)    
Max Wind Speed 10 mph    
Max Gust Speed 16 mph    
Visibility 6 miles    
Events Fog    
T = Trace of Precipitation, MM = Missing Value Source: NWS Daily Summary

Daily Weather History Graph

Daily Weather History Graph

Search for Another Location

Airport or City:

Astronomy

Apr. 10, 2014 Rise Set
Actual Time 6:28 AM PDT 7:20 PM PDT
Civil Twilight 6:02 AM PDT 7:45 PM PDT
Nautical Twilight 5:32 AM PDT 8:15 PM PDT
Astronomical Twilight 5:01 AM PDT 8:46 PM PDT
Moon 3:19 PM PDT (4/10) 3:41 AM PDT (4/10)
Length of Visible Light 13h 42m
Length of Day
12h 52m
Waxing Gibbous, 80% of the Moon is Illuminated
Apr 10
Waxing Gibbous
Apr 15
Full
Apr 22
Last Quarter
Apr 28
New
May 6
First Quarter

Hourly Weather History & Observations

Time (PDT) Temp. Dew Point Humidity Pressure Visibility Wind Dir Wind Speed Gust Speed Precip Events Conditions
12:53 AM 57.9 °F 48.9 °F 72% 29.99 in 10.0 mi Calm Calm - N/A   Clear
1:53 AM 57.9 °F 50.0 °F 75% 29.98 in 9.0 mi Calm Calm - N/A   Clear
2:53 AM 55.0 °F 48.0 °F 77% 29.96 in 7.0 mi Calm Calm - N/A   Clear
3:27 AM 51.8 °F 46.4 °F 82% 29.97 in 1.8 mi NW 6.9 mph - N/A   Haze
3:29 AM 51.8 °F 46.4 °F 82% 29.97 in 0.8 mi NW 5.8 mph - N/A   Mist
3:35 AM 51.8 °F 46.4 °F 82% 29.96 in 0.2 mi NW 4.6 mph - N/A Fog Fog
3:53 AM 52.0 °F 48.0 °F 86% 29.96 in 0.2 mi NW 3.5 mph - N/A Fog Fog
4:53 AM 51.1 °F 48.0 °F 89% 29.95 in 0.2 mi Calm Calm - N/A Fog Fog
5:53 AM 51.1 °F 48.0 °F 89% 29.96 in 0.2 mi NNW 3.5 mph - N/A Fog Fog
6:53 AM 51.1 °F 48.9 °F 92% 29.97 in 0.2 mi Calm Calm - N/A Fog Fog
7:53 AM 51.1 °F 50.0 °F 96% 29.98 in 0.2 mi Calm Calm - N/A Fog Fog
8:14 AM 53.6 °F 51.8 °F 94% 29.98 in 0.2 mi Calm Calm - N/A Fog Fog
8:20 AM 53.6 °F 51.8 °F 94% 29.98 in 1.0 mi Calm Calm - N/A   Overcast
8:31 AM 53.6 °F 51.8 °F 94% 29.98 in 2.0 mi Calm Calm - N/A   Overcast
8:53 AM 54.0 °F 53.1 °F 97% 29.98 in 2.0 mi East 3.5 mph - N/A   Overcast
9:01 AM 53.6 °F 53.6 °F 100% 29.98 in 2.0 mi Calm Calm - N/A   Scattered Clouds
9:31 AM 59.0 °F 53.6 °F 82% 29.98 in 4.0 mi Variable 3.5 mph - N/A   Haze
9:53 AM 62.1 °F 52.0 °F 70% 29.98 in 5.0 mi Calm Calm - N/A   Haze
10:53 AM 68.0 °F 50.0 °F 52% 29.99 in 7.0 mi SSW 4.6 mph - N/A   Clear
11:53 AM 68.0 °F 48.9 °F 50% 29.99 in 8.0 mi Variable 5.8 mph - N/A   Clear
12:53 PM 73.9 °F 42.1 °F 32% 29.96 in 10.0 mi SSE 4.6 mph - N/A   Clear
1:53 PM 73.0 °F 46.9 °F 39% 29.94 in 9.0 mi SSE 6.9 mph - N/A   Clear
2:53 PM 75.0 °F 44.1 °F 33% 29.92 in 10.0 mi SSE 5.8 mph - N/A   Clear
3:53 PM 75.0 °F 37.9 °F 26% 29.91 in 10.0 mi South 4.6 mph - N/A   Clear
4:53 PM 71.1 °F 46.0 °F 41% 29.90 in 9.0 mi NW 8.1 mph - N/A   Clear
5:53 PM 69.1 °F 46.0 °F 44% 29.91 in 10.0 mi WNW 6.9 mph - N/A   Clear
6:53 PM 64.9 °F 48.0 °F 54% 29.91 in 10.0 mi NW 8.1 mph - N/A   Clear
7:53 PM 63.0 °F 48.9 °F 60% 29.93 in 10.0 mi WNW 6.9 mph - N/A   Clear
8:53 PM 60.1 °F 48.9 °F 67% 29.94 in 9.0 mi NW 8.1 mph - N/A   Clear
9:53 PM 59.0 °F 48.9 °F 69% 29.95 in 10.0 mi Calm Calm - N/A   Clear
10:53 PM 59.0 °F 51.1 °F 75% 29.94 in 9.0 mi NW 4.6 mph - N/A   Clear
11:53 PM 57.9 °F 51.1 °F 78% 29.94 in 8.0 mi NNW 3.5 mph - N/A   Clear